Location: Evergreen Manor
(41.4083°N, 81.4939°W)
Time: 04:33:25
(UTC+00:00)

Cosmos 1943 Rocket - Pass Details

Date: 11 December 2019
Orbit: 812 x 844 km, 71.0° (Epoch: 22 January)

Event Time Altitude Azimuth Distance (km) Brightness Sun altitude
Rises 00:44:18 0° 336° (NNW) 3,401 5.6 -30.6°
Reaches altitude 10° 00:46:45 10° 336° (NNW) 2,459 4.8 -31.1°
Enters shadow 00:49:28 30° 337° (NNW) 1,474 3.5 -31.6°
